EW2649 Weather Reports


Display with metric or nautical units.
time (UTC)temp
F
wind
direction
speed
MPH
gust
MPH
rain 1hr
in
rain 24hr
in
rain mn
in
humidity
%
barometer
mb
20260831113023 54 234 2.0 9.0 0.00 0.00 0.00 88 1008.9
20260831111522 53 268 1.0 8.0 0.00 0.00 0.00 89 1008.9
20260831110020 52 246 3.0 5.0 0.00 0.00 0.00 89 1008.9
20260831104520 52 202 5.0 8.0 0.00 0.00 0.00 89 1008.8
20260831103018 52 209 4.0 8.0 0.00 0.00 0.00 89 1008.6
20260831101518 52 193 2.0 7.0 0.00 0.00 0.00 87 1008.7
20260831100017 54 197 2.0 9.0 0.00 0.00 0.00 87 1008.5
20260831094517 54 185 2.0 7.0 0.00 0.00 0.00 87 1008.5
20260831093017 54 204 3.0 8.0 0.00 0.00 0.00 87 1008.6
20260831091515 54 199 5.0 8.0 0.00 0.00 0.00 88 1008.6
20260831090014 55 211 7.0 18.0 0.00 0.00 0.00 88 1008.6
20260831084511 54 177 9.0 13.0 0.00 0.00 0.00 89 1008.7
20260831083011 54 166 6.0 15.0 0.00 0.00 0.00 90 1008.6
20260831081504 53 192 4.0 6.0 0.00 0.00 0.00 90 1008.8
20260831080026 52 148 2.0 6.0 0.00 0.00 0.00 90 1008.9
20260831074522 51 169 2.0 4.0 0.00 0.00 0.00 89 1009.0
20260831073021 52 173 1.0 3.0 0.00 0.00 0.00 89 1008.9
20260831071517 52 175 1.0 3.0 0.00 0.00 0.00 88 1008.8
20260831070024 52 176 1.0 3.0 0.00 0.00 0.00 88 1008.8
20260831064537 53 177 1.0 3.0 0.00 0.00 0.00 87 1008.8
20260831063036 53 177 1.0 3.0 0.00 0.00 0.00 87 1008.8
20260831061536 54 177 2.0 3.0 0.00 0.00 0.00 87 1008.8
20260831060035 54 176 1.0 2.0 0.00 0.00 0.00 86 1008.8
20260831054538 55 160 2.0 5.0 0.00 0.00 0.00 85 1008.7
20260831053038 56 190 3.0 5.0 0.00 0.00 0.00 84 1008.8
20260831051534 56 177 0.0 0.0 0.00 0.00 0.00 84 1008.6
20260831050033 57 178 0.0 3.0 0.00 0.00 0.00 83 1008.8
20260831044533 57 178 1.0 3.0 0.00 0.00 0.00 82 1008.6
20260831043032 58 184 3.0 5.0 0.00 0.00 0.00 81 1008.6
20260831041613 58 167 3.0 4.0 0.00 0.00 0.00 80 1008.4
20260831040032 59 162 3.0 5.0 0.00 0.00 0.00 80 1008.2
20260831034531 59 167 1.0 3.0 0.00 0.00 0.00 78 1008.0
20260831033031 60 169 0.0 2.0 0.00 0.00 0.00 77 1007.9
20260831031530 61 169 1.0 4.0 0.00 0.00 0.00 76 1007.6
20260831030033 61 157 7.0 14.0 0.00 0.00 0.00 76 1007.4
20260831024538 62 217 8.0 15.0 0.00 0.00 0.00 74 1007.3
20260831023032 64 207 8.0 15.0 0.00 0.00 0.00 71 1007.3
20260831021538 65 186 7.0 15.0 0.00 0.00 0.00 69 1007.1
20260831020029 66 213 12.0 17.0 0.00 0.00 0.00 69 1007.1
20260831014527 67 189 8.0 16.0 0.00 0.00 0.00 67 1007.1
20260831013027 69 199 7.0 14.0 0.00 0.00 0.00 66 1007.0
20260831011541 70 171 7.0 12.0 0.00 0.00 0.00 64 1007.0
20260831010024 71 204 7.0 17.0 0.00 0.00 0.00 62 1006.9
20260831004524 72 122 6.0 13.0 0.00 0.00 0.00 60 1007.1
20260831003031 74 225 6.0 11.0 0.00 0.00 0.00 58 1007.1
20260831001523 73 219 9.0 15.0 0.00 0.00 0.00 58 1007.2
20260831000026 75 178 5.0 11.0 0.00 0.00 0.00 56 1007.3
20260830234523 76 206 7.0 12.0 0.00 0.00 0.00 55 1007.3
20260830233024 75 182 7.0 13.0 0.00 0.00 0.00 55 1007.3
20260830231520 76 177 8.0 13.0 0.00 0.00 0.00 54 1007.4
20260830230018 76 179 8.0 15.0 0.00 0.00 0.00 53 1007.4
20260830224522 76 225 9.0 12.0 0.00 0.00 0.00 53 1007.6
20260830223016 76 221 8.0 15.0 0.00 0.00 0.00 52 1007.8
20260830221515 77 198 7.0 13.0 0.00 0.00 0.00 51 1007.8
20260830220017 76 201 6.0 12.0 0.00 0.00 0.00 51 1008.1
20260830214512 77 164 6.0 12.0 0.00 0.00 0.00 50 1008.3
20260830213010 77 152 3.0 7.0 0.00 0.00 0.00 53 1008.6
20260830211506 76 355 2.0 9.0 0.00 0.00 0.00 54 1008.8
20260830210100 76 62 2.0 9.0 0.00 0.00 0.00 53 1008.9
20260830204557 76 84 3.0 7.0 0.00 0.00 0.00 54 1009.0
20260830203053 76 129 6.0 10.0 0.00 0.00 0.00 55 1009.1
20260830201549 75 115 3.0 8.0 0.00 0.00 0.00 56 1009.2
20260830200044 74 225 5.0 12.0 0.00 0.00 0.00 57 1009.2
20260830194555 74 209 6.0 10.0 0.00 0.00 0.00 57 1009.4
20260830193048 73 248 6.0 12.0 0.00 0.00 0.00 58 1009.4
20260830191535 72 206 5.0 10.0 0.00 0.00 0.00 60 1009.4
20260830190031 72 206 7.0 12.0 0.00 0.00 0.00 60 1009.4
20260830184530 71 226 7.0 12.0 0.00 0.00 0.00 61 1009.7
20260830183025 70 170 5.0 12.0 0.00 0.00 0.00 63 1009.8
20260830181520 70 227 7.0 11.0 0.00 0.00 0.00 62 1009.9
20260830180015 70 172 5.0 9.0 0.00 0.00 0.00 63 1010.0
20260830174511 68 113 5.0 12.0 0.00 0.00 0.00 64 1010.0
20260830173006 67 91 2.0 8.0 0.00 0.00 0.00 66 1010.0
20260830171503 67 155 6.0 9.0 0.00 0.00 0.00 67 1010.1
20260830170057 65 197 8.0 12.0 0.00 0.00 0.00 70 1010.2
20260830164554 64 190 6.0 11.0 0.00 0.00 0.00 72 1010.2
20260830163051 63 161 7.0 11.0 0.00 0.00 0.00 74 1010.2
20260830161548 62 217 9.0 14.0 0.00 0.00 0.00 76 1010.2
20260830160041 62 201 7.0 11.0 0.00 0.00 0.00 75 1010.4
20260830154536 62 229 7.0 11.0 0.00 0.00 0.00 75 1010.4
20260830153032 62 194 0.0 2.0 0.00 0.00 0.00 76 1010.4
20260830151529 61 33 1.0 3.0 0.00 0.00 0.00 78 1010.4
20260830150023 60 224 2.0 8.0 0.00 0.00 0.00 80 1010.3
20260830144523 58 215 4.0 8.0 0.00 0.00 0.00 83 1010.4
20260830143016 57 213 5.0 10.0 0.00 0.00 0.00 85 1010.4
20260830141511 56 183 3.0 8.0 0.00 0.00 0.00 87 1010.3
20260830140009 55 178 3.0 5.0 0.00 0.00 0.00 87 1010.2
20260830134514 55 214 4.0 7.0 0.00 0.00 0.00 87 1010.1
20260830133004 55 180 5.0 8.0 0.00 0.00 0.00 88 1010.1
20260830131503 53 158 1.0 6.0 0.00 0.00 0.00 89 1010.1
20260830130001 52 223 3.0 8.0 0.00 0.00 0.00 91 1009.9
20260830124600 50 217 4.0 5.0 0.00 0.00 0.00 90 1009.9
20260830123100 50 186 1.0 3.0 0.00 0.00 0.00 89 1009.8
20260830121600 50 185 2.0 4.0 0.00 0.00 0.00 90 1009.7
20260830120100 50 171 3.0 4.0 0.00 0.00 0.00 89 1009.9
20260830114552 50 163 3.0 5.0 0.00 0.00 0.00 88 1009.9